TimeCDT,TemperatureF,Dew PointF,Humidity,Sea Level PressureIn,VisibilityMPH,Wind Direction,Wind SpeedMPH,Gust SpeedMPH,PrecipitationIn,Events,Conditions,WindDirDegrees,DateUTC
12:15 AM,44.6,42.8,93,30.15,10.0,Calm,Calm,-,N/A,,Clear,0,2012-10-09 05:15:00
12:35 AM,44.6,42.8,93,30.14,7.0,Calm,Calm,-,N/A,,Clear,0,2012-10-09 05:35:00
12:55 AM,44.6,42.8,93,30.14,10.0,Calm,Calm,-,N/A,,Clear,0,2012-10-09 05:55:00
1:15 AM,44.6,42.8,93,30.14,7.0,Calm,Calm,-,N/A,,Clear,0,2012-10-09 06:15:00
1:55 AM,44.6,42.8,93,30.14,7.0,Calm,Calm,-,N/A,,Clear,0,2012-10-09 06:55:00
2:15 AM,42.8,41.0,93,30.14,7.0,Calm,Calm,-,N/A,,Clear,0,2012-10-09 07:15:00
2:55 AM,42.8,41.0,93,30.13,7.0,Calm,Calm,-,N/A,,Clear,0,2012-10-09 07:55:00
3:15 AM,42.8,41.0,93,30.13,7.0,Calm,Calm,-,N/A,,Clear,0,2012-10-09 08:15:00
3:35 AM,42.8,41.0,93,30.13,7.0,Calm,Calm,-,N/A,,Clear,0,2012-10-09 08:35:00
3:55 AM,42.8,41.0,93,30.13,10.0,Calm,Calm,-,N/A,,Clear,0,2012-10-09 08:55:00
4:15 AM,42.8,41.0,93,30.13,7.0,Calm,Calm,-,N/A,,Clear,0,2012-10-09 09:15:00
4:35 AM,42.8,41.0,93,30.12,7.0,Calm,Calm,-,N/A,,Clear,0,2012-10-09 09:35:00
4:55 AM,42.8,41.0,93,30.12,7.0,Calm,Calm,-,N/A,,Clear,0,2012-10-09 09:55:00
5:15 AM,41.0,39.2,93,30.11,7.0,Calm,Calm,-,N/A,,Clear,0,2012-10-09 10:15:00
5:35 AM,42.8,41.0,93,30.12,10.0,Calm,Calm,-,N/A,,Clear,0,2012-10-09 10:35:00
5:55 AM,41.0,41.0,100,30.12,7.0,Calm,Calm,-,N/A,,Clear,0,2012-10-09 10:55:00
6:15 AM,42.8,41.0,93,30.12,10.0,Calm,Calm,-,N/A,,Clear,0,2012-10-09 11:15:00
6:35 AM,42.8,41.0,93,30.13,7.0,Calm,Calm,-,N/A,,Clear,0,2012-10-09 11:35:00
6:55 AM,42.8,41.0,93,30.13,7.0,Calm,Calm,-,N/A,,Clear,0,2012-10-09 11:55:00
7:15 AM,42.8,41.0,93,30.14,5.0,Calm,Calm,-,N/A,,Clear,0,2012-10-09 12:15:00
7:35 AM,42.8,41.0,93,30.14,7.0,Calm,Calm,-,N/A,,Clear,0,2012-10-09 12:35:00
7:55 AM,44.6,42.8,93,30.14,7.0,Calm,Calm,-,N/A,,Clear,0,2012-10-09 12:55:00
8:15 AM,44.6,42.8,93,30.14,10.0,Calm,Calm,-,N/A,,Mostly Cloudy,0,2012-10-09 13:15:00
8:35 AM,46.4,44.6,93,30.14,10.0,Calm,Calm,-,N/A,,Overcast,0,2012-10-09 13:35:00
8:55 AM,50.0,46.4,87,30.14,10.0,SE,3.5,-,N/A,,Overcast,140,2012-10-09 13:55:00
9:15 AM,50.0,46.4,87,30.14,10.0,SSE,3.5,-,N/A,,Overcast,150,2012-10-09 14:15:00
9:35 AM,50.0,46.4,87,30.15,10.0,SSE,4.6,-,N/A,,Overcast,160,2012-10-09 14:35:00
9:55 AM,51.8,50.0,94,30.14,10.0,SSE,3.5,-,N/A,,Overcast,150,2012-10-09 14:55:00
10:15 AM,51.8,48.2,88,30.14,10.0,SSE,5.8,-,N/A,,Overcast,150,2012-10-09 15:15:00
10:35 AM,55.4,50.0,82,30.14,10.0,SSE,6.9,-,N/A,,Overcast,150,2012-10-09 15:35:00
10:55 AM,55.4,50.0,82,30.13,10.0,SE,6.9,-,N/A,,Overcast,140,2012-10-09 15:55:00
11:15 AM,55.4,50.0,82,30.12,10.0,SSE,8.1,-,N/A,,Overcast,150,2012-10-09 16:15:00
11:35 AM,59.0,50.0,72,30.11,10.0,SE,5.8,-,N/A,,Overcast,140,2012-10-09 16:35:00
11:55 AM,62.6,51.8,68,30.10,10.0,SSE,5.8,-,N/A,,Overcast,150,2012-10-09 16:55:00
12:15 PM,64.4,53.6,68,30.09,10.0,SSE,8.1,-,N/A,,Overcast,150,2012-10-09 17:15:00
12:35 PM,64.4,53.6,68,30.09,10.0,South,8.1,-,N/A,,Overcast,180,2012-10-09 17:35:00
12:55 PM,64.4,53.6,68,30.08,10.0,South,8.1,-,N/A,,Overcast,180,2012-10-09 17:55:00
1:15 PM,66.2,53.6,64,30.07,10.0,SSE,6.9,-,N/A,,Overcast,160,2012-10-09 18:15:00
1:35 PM,68.0,55.4,64,30.05,10.0,SSE,9.2,-,N/A,,Overcast,160,2012-10-09 18:35:00
1:55 PM,69.8,57.2,64,30.04,10.0,South,8.1,-,N/A,,Overcast,170,2012-10-09 18:55:00
2:15 PM,69.8,55.4,60,30.02,10.0,South,8.1,-,N/A,,Overcast,170,2012-10-09 19:15:00
2:35 PM,69.8,55.4,60,30.01,10.0,ESE,5.8,-,N/A,,Overcast,120,2012-10-09 19:35:00
2:55 PM,71.6,57.2,60,30.00,10.0,SSE,8.1,-,N/A,,Overcast,160,2012-10-09 19:55:00
3:15 PM,71.6,59.0,64,29.99,10.0,SSE,6.9,-,N/A,,Overcast,150,2012-10-09 20:15:00
3:35 PM,71.6,59.0,64,29.98,10.0,SE,10.4,-,N/A,,Overcast,140,2012-10-09 20:35:00
3:55 PM,71.6,59.0,64,29.97,10.0,SSE,6.9,-,N/A,,Mostly Cloudy,160,2012-10-09 20:55:00
4:15 PM,73.4,59.0,61,29.97,10.0,SSE,5.8,-,N/A,,Mostly Cloudy,160,2012-10-09 21:15:00
4:35 PM,71.6,59.0,64,29.96,10.0,SE,6.9,-,N/A,,Mostly Cloudy,140,2012-10-09 21:35:00
4:55 PM,69.8,59.0,68,29.97,10.0,SE,3.5,-,N/A,,Overcast,140,2012-10-09 21:55:00
5:15 PM,69.8,59.0,68,29.96,10.0,SE,3.5,-,N/A,,Overcast,140,2012-10-09 22:15:00
5:35 PM,71.6,60.8,69,29.96,10.0,SE,3.5,-,N/A,,Mostly Cloudy,130,2012-10-09 22:35:00
5:55 PM,69.8,60.8,73,29.95,10.0,SE,3.5,-,N/A,,Mostly Cloudy,130,2012-10-09 22:55:00
6:15 PM,69.8,60.8,73,29.95,10.0,Calm,Calm,-,N/A,,Overcast,0,2012-10-09 23:15:00
6:35 PM,69.8,62.6,78,29.95,10.0,Calm,Calm,-,N/A,,Overcast,0,2012-10-09 23:35:00
6:55 PM,69.8,62.6,78,29.95,10.0,Calm,Calm,-,N/A,,Overcast,0,2012-10-09 23:55:00
7:15 PM,69.8,62.6,78,29.96,10.0,Calm,Calm,-,N/A,,Overcast,0,2012-10-10 00:15:00
7:35 PM,69.8,64.4,83,29.96,10.0,Calm,Calm,-,N/A,,Overcast,0,2012-10-10 00:35:00
7:55 PM,68.0,62.6,83,29.96,10.0,Calm,Calm,-,N/A,,Overcast,0,2012-10-10 00:55:00
8:15 PM,68.0,62.6,83,29.97,10.0,Calm,Calm,-,N/A,,Overcast,0,2012-10-10 01:15:00
8:35 PM,64.4,60.8,88,29.97,10.0,Calm,Calm,-,N/A,,Overcast,0,2012-10-10 01:35:00
8:55 PM,64.4,60.8,88,29.98,10.0,Calm,Calm,-,N/A,,Overcast,0,2012-10-10 01:55:00
9:15 PM,64.4,62.6,94,29.99,10.0,Calm,Calm,-,N/A,,Overcast,0,2012-10-10 02:15:00
9:35 PM,64.4,62.6,94,30.00,10.0,Calm,Calm,-,N/A,,Overcast,0,2012-10-10 02:35:00
9:55 PM,64.4,62.6,94,30.01,10.0,Calm,Calm,-,N/A,,Overcast,0,2012-10-10 02:55:00
10:15 PM,64.4,60.8,88,30.02,10.0,Calm,Calm,-,N/A,,Overcast,0,2012-10-10 03:15:00
10:35 PM,64.4,60.8,88,30.03,10.0,Calm,Calm,-,N/A,,Overcast,0,2012-10-10 03:35:00
10:55 PM,64.4,60.8,88,30.04,10.0,Calm,Calm,-,N/A,,Overcast,0,2012-10-10 03:55:00
11:15 PM,64.4,60.8,88,30.04,10.0,Calm,Calm,-,N/A,,Overcast,0,2012-10-10 04:15:00
11:35 PM,64.4,60.8,88,30.04,10.0,Calm,Calm,-,N/A,,Overcast,0,2012-10-10 04:35:00
11:55 PM,64.4,62.6,94,30.03,10.0,Calm,Calm,-,N/A,,Overcast,0,2012-10-10 04:55:00